FW4202 Weather Reports


Display with metric or nautical units.
time (UTC)temp
F
wind
direction
speed
MPH
gust
MPH
rain 1hr
in
rain 24hr
in
rain mn
in
humidity
%
barometer
mb
20210804164018 82 148 0.0 4.0 0.00 1.34 1.34 79 1016.9
20210804163529 82 213 2.0 4.0 0.00 1.34 1.34 79 1016.9
20210804163019 81 188 1.0 4.0 0.00 1.34 1.34 81 1016.9
20210804162517 81 206 2.0 5.0 0.00 1.34 1.34 81 1016.8
20210804162028 81 153 0.0 5.0 0.00 1.34 1.34 81 1016.8
20210804161521 81 169 2.0 5.0 0.00 1.34 1.34 80 1016.7
20210804161037 81 177 0.0 5.0 0.00 1.34 1.34 82 1016.7
20210804160526 80 168 3.0 5.0 0.00 1.34 1.34 83 1016.8
20210804160052 80 148 0.0 3.0 0.00 1.34 1.34 83 1016.7
20210804155528 80 149 1.0 3.0 0.00 1.34 1.34 84 1017.0
20210804155016 79 151 0.0 3.0 0.00 1.34 1.34 85 1017.0
20210804154523 79 111 0.0 6.0 0.00 1.34 1.34 86 1017.0
20210804154017 79 105 1.0 6.0 0.00 1.34 1.34 86 1016.9
20210804153520 79 108 2.0 6.0 0.00 1.34 1.34 85 1016.8
20210804153027 79 174 1.0 6.0 0.00 1.34 1.34 85 1016.8
20210804152523 79 215 3.0 6.0 0.00 1.35 1.34 87 1016.8
20210804152031 78 182 2.0 5.0 0.00 1.35 1.34 87 1016.8
20210804151520 78 203 2.0 5.0 0.00 1.35 1.34 88 1016.8
20210804151014 78 168 1.0 7.0 0.00 1.35 1.34 89 1016.8
20210804150514 78 165 3.0 7.0 0.00 1.35 1.34 87 1016.8
20210804150058 78 170 2.0 6.0 0.00 1.35 1.34 88 1016.7
20210804145523 77 174 1.0 7.0 0.00 1.35 1.34 90 1016.7
20210804145014 77 212 2.0 7.0 0.00 1.35 1.34 90 1016.7
20210804144515 76 161 1.0 5.0 0.00 1.35 1.34 92 1016.7
20210804144025 76 212 1.0 5.0 0.00 1.35 1.34 92 1016.7
20210804143513 76 183 1.0 5.0 0.00 1.35 1.34 93 1016.7
20210804143021 76 184 1.0 4.0 0.00 1.35 1.34 93 1016.7
20210804142519 76 190 1.0 4.0 0.00 1.37 1.34 93 1016.7
20210804142013 76 185 0.0 3.0 0.00 1.37 1.34 95 1016.6
20210804141540 75 198 1.0 3.0 0.00 1.37 1.34 95 1016.7
20210804141012 75 204 1.0 3.0 0.00 1.37 1.34 95 1016.6
20210804140513 75 157 1.0 3.0 0.00 1.37 1.34 96 1016.6
20210804140027 75 157 2.0 3.0 0.00 1.37 1.34 96 1016.6
20210804135511 75 157 0.0 3.0 0.00 1.37 1.34 96 1016.6
20210804135012 75 174 1.0 3.0 0.00 1.37 1.34 96 1016.6
20210804134515 75 144 0.0 4.0 0.00 1.37 1.34 97 1016.6
20210804134020 75 142 0.0 4.0 0.00 1.37 1.34 98 1016.6
20210804133510 74 167 1.0 4.0 0.00 1.37 1.34 98 1016.4
20210804133011 74 162 0.0 3.0 0.00 1.37 1.34 99 1016.5
20210804132514 74 191 1.0 2.0 0.00 1.37 1.34 99 1016.6
20210804132017 74 184 0.0 4.0 0.00 1.37 1.34 100 1016.4
20210804131537 74 155 0.0 4.0 0.00 1.37 1.34 100 1016.4
20210804131037 73 158 1.0 4.0 0.00 1.37 1.34 100 1016.3
20210804130514 73 216 1.0 4.0 0.00 1.37 1.34 100 1016.3
20210804130013 73 180 1.0 4.0 0.00 1.37 1.34 100 1016.2
20210804125510 73 162 0.0 3.0 0.00 1.37 1.34 100 1016.1
20210804125011 73 137 0.0 3.0 0.00 1.37 1.34 100 1016.0
20210804124508 73 203 0.0 3.0 0.00 1.37 1.34 100 1016.0
20210804124011 73 159 0.0 3.0 0.00 1.37 1.34 100 1015.8
20210804123508 73 219 0.0 3.0 0.00 1.37 1.34 100 1015.8
20210804123029 73 158 0.0 3.0 0.00 1.37 1.34 100 1015.8
20210804122507 73 171 1.0 3.0 0.00 1.37 1.34 100 1015.7
20210804122010 73 184 0.0 4.0 0.00 1.37 1.34 100 1015.9
20210804121515 73 193 1.0 4.0 0.00 1.37 1.34 100 1015.8
20210804121014 73 174 0.0 3.0 0.00 1.37 1.34 100 1015.8
20210804120510 73 184 0.0 2.0 0.00 1.37 1.34 100 1015.7
20210804120008 73 167 0.0 4.0 0.00 1.37 1.34 100 1015.7
20210804115505 73 223 0.0 4.0 0.00 1.37 1.34 100 1015.7
20210804115005 73 152 0.0 0.0 0.00 1.37 1.34 100 1015.5
20210804114506 73 155 0.0 0.0 0.00 1.37 1.34 100 1015.5
20210804114004 73 155 0.0 0.0 0.00 1.37 1.34 100 1015.5
20210804113509 73 155 0.0 0.0 0.00 1.37 1.34 100 1015.4
20210804113036 73 155 0.0 0.0 0.00 1.37 1.34 100 1015.4
20210804112504 73 155 0.0 0.0 0.00 1.37 1.34 100 1015.3
20210804112007 73 155 0.0 0.0 0.00 1.37 1.34 100 1015.3
20210804111503 73 155 0.0 0.0 0.00 1.37 1.34 100 1015.2
20210804111013 73 155 0.0 0.0 0.00 1.37 1.34 100 1014.9
20210804110501 73 155 0.0 0.0 0.00 1.37 1.34 100 1014.9
20210804110008 73 155 0.0 0.0 0.00 1.37 1.34 100 1014.9
20210804105501 73 155 0.0 0.0 0.00 1.37 1.34 100 1014.9
20210804105000 73 155 0.0 0.0 0.00 1.37 1.34 100 1014.8
20210804104649 73 155 0.0 0.0 0.00 1.37 1.34 100 1014.8
20210804103559 72 155 0.0 0.0 0.00 1.37 1.34 100 1014.5
20210804103227 72 155 0.0 0.0 0.00 1.37 1.34 100 1014.5
20210804102559 72 124 0.0 0.0 0.00 1.37 1.34 100 1014.4
20210804102103 72 121 0.0 0.0 0.00 1.37 1.34 100 1014.3
20210804102003 72 120 0.0 0.0 0.00 1.37 1.34 100 1014.3
20210804101718 72 121 0.0 0.0 0.00 1.37 1.34 100 1014.3
20210804100602 72 120 0.0 0.0 0.00 1.37 1.34 100 1014.2
20210804100135 72 120 0.0 0.0 0.00 1.37 1.34 100 1014.1
20210804095557 72 111 0.0 0.0 0.00 1.37 1.34 100 1014.1
20210804095057 73 111 0.0 0.0 0.00 1.37 1.34 100 1014.1
20210804094707 72 111 0.0 0.0 0.00 1.37 1.34 100 1014.0
20210804093606 72 111 0.0 0.0 0.00 1.37 1.34 100 1013.8
20210804093155 72 111 0.0 0.0 0.00 1.37 1.34 100 1013.9
20210804092610 72 111 0.0 0.0 0.00 1.37 1.34 100 1014.0
20210804092109 72 111 0.0 0.0 0.00 1.37 1.34 100 1014.0
20210804091742 72 111 0.0 0.0 0.00 1.37 1.34 100 1014.1
20210804091104 72 111 0.0 0.0 0.00 1.37 1.34 100 1014.0
20210804090600 72 110 0.0 0.0 0.00 1.37 1.34 100 1013.8
20210804090203 72 110 0.0 0.0 0.00 1.37 1.34 100 1013.9
20210804085556 72 110 0.0 0.0 0.00 1.37 1.34 100 1013.9
20210804085055 72 110 0.0 0.0 0.00 1.37 1.34 100 1013.9
20210804084723 72 110 0.0 0.0 0.00 1.37 1.34 100 1013.8
20210804083612 72 110 0.0 0.0 0.00 1.37 1.34 100 1014.0
20210804083435 72 110 0.0 0.0 0.00 1.37 1.34 100 1014.1
20210804082556 72 110 0.0 0.0 0.00 1.37 1.34 100 1014.1
20210804082105 72 110 0.0 0.0 0.00 1.37 1.34 100 1014.1
20210804081651 72 110 0.0 0.0 0.00 1.37 1.34 100 1014.2
20210804081055 72 110 0.0 0.0 0.00 1.37 1.34 100 1014.1
20210804080613 72 110 0.0 0.0 0.00 1.37 1.34 100 1014.1
20210804075559 72 110 0.0 0.0 0.00 1.37 1.34 100 1014.1
20210804075103 72 110 0.0 0.0 0.00 1.37 1.34 100 1014.1
20210804074638 72 109 0.0 0.0 0.00 1.37 1.34 100 1014.2
20210804073601 72 105 0.0 0.0 0.00 1.37 1.34 100 1014.1
20210804073227 72 105 0.0 0.0 0.00 1.37 1.34 100 1013.9
20210804072556 72 110 0.0 0.0 0.00 1.38 1.34 100 1013.9
20210804072105 72 110 0.0 0.0 0.00 1.38 1.34 100 1013.9
20210804071727 72 110 0.0 0.0 0.00 1.38 1.34 100 1014.0
20210804071100 72 110 0.0 0.0 0.00 1.38 1.34 100 1013.9
20210804070600 72 110 0.0 0.0 0.00 1.38 1.34 100 1013.8
20210804070118 72 110 0.0 0.0 0.00 1.38 1.34 100 1013.8
20210804065552 72 110 0.0 0.0 0.00 1.38 1.34 100 1013.9
20210804065053 72 110 0.0 0.0 0.00 1.38 1.34 100 1013.9
20210804064620 72 110 0.0 0.0 0.00 1.38 1.34 100 1014.0
20210804063549 72 110 0.0 2.0 0.00 1.38 1.34 100 1013.9
20210804063129 72 109 0.0 2.0 0.01 1.38 1.34 100 1013.9
20210804062549 72 123 0.0 2.0 0.01 1.40 1.34 100 1014.0
20210804062107 72 120 0.0 1.0 0.01 1.40 1.34 100 1013.9
20210804061624 73 134 0.0 1.0 0.01 1.40 1.34 100 1014.0
20210804061055 73 140 0.0 3.0 0.01 1.40 1.34 100 1013.9
20210804060549 73 109 0.0 3.0 0.01 1.40 1.34 100 1014.0
20210804060213 72 107 0.0 0.0 0.01 1.40 1.34 100 1014.0
20210804055607 72 145 0.0 0.0 0.01 1.40 1.34 100 1014.1
20210804055049 72 145 0.0 0.0 0.01 1.40 1.34 100 1014.0
20210804054606 72 145 0.0 0.0 0.01 1.40 1.34 100 1014.0
20210804053555 72 145 0.0 0.0 0.01 1.40 1.34 100 1014.2
20210804053141 73 145 0.0 0.0 0.01 1.40 1.34 100 1014.2
20210804052548 73 145 0.0 0.0 0.00 1.44 1.33 100 1014.2
20210804052048 73 145 0.0 0.0 0.00 1.44 1.33 100 1014.2
20210804051639 73 145 0.0 0.0 0.00 1.44 1.33 100 1014.2
20210804051051 73 145 0.0 0.0 0.00 1.44 1.33 100 1014.2
20210804050557 73 145 0.0 0.0 0.00 1.44 1.33 100 1014.1
20210804050203 73 145 0.0 0.0 0.00 1.44 1.33 100 1014.2
20210804045601 73 145 0.0 0.0 0.00 1.44 1.33 100 1014.4
20210804045047 73 145 0.0 0.0 0.00 1.44 1.33 100 1014.4
20210804044648 73 145 0.0 0.0 0.00 1.44 1.33 100 1014.4
20210804043600 73 145 0.0 0.0 0.00 1.44 1.33 100 1014.4
20210804043111 73 145 0.0 0.0 0.00 1.44 1.33 100 1014.5
20210804042554 73 145 0.0 0.0 0.00 1.48 1.33 100 1014.5
20210804042047 73 145 0.0 0.0 0.00 1.48 1.33 100 1014.5
20210804041605 73 145 0.0 0.0 0.00 1.48 1.33 100 1014.5
20210804041047 73 145 0.0 0.0 0.00 1.48 1.33 100 1014.6
20210804040546 73 145 0.0 0.0 0.00 1.48 1.33 100 1014.6
20210804040213 73 145 0.0 0.0 0.00 1.48 1.33 100 1014.6
20210804035636 73 145 0.0 0.0 0.00 1.48 1.33 100 1014.6
20210804035046 73 145 0.0 0.0 0.00 1.48 1.33 100 1014.5
20210804034639 73 145 0.0 0.0 0.00 1.48 1.33 100 1014.3
20210804033544 73 145 0.0 0.0 0.00 1.48 1.33 100 1014.3
20210804033105 73 145 0.0 0.0 0.00 1.48 1.33 100 1014.3
20210804032550 73 145 0.0 0.0 0.00 1.55 1.33 100 1014.3
20210804032044 73 145 0.0 0.0 0.00 1.55 1.33 100 1014.4
20210804031609 73 145 0.0 0.0 0.00 1.55 1.33 100 1014.5
20210804031045 73 164 0.0 0.0 0.00 1.55 1.33 100 1014.4
20210804030544 73 163 0.0 0.0 0.00 1.55 1.33 100 1014.4
20210804030107 73 163 0.0 0.0 0.00 1.55 1.33 100 1014.6
20210804025551 73 163 0.0 0.0 0.00 1.55 1.33 100 1014.6
20210804024556 73 163 0.0 0.0 0.00 1.55 1.33 100 1014.6
20210804023544 73 163 0.0 0.0 0.01 1.55 1.33 100 1014.5
20210804023110 73 163 0.0 0.0 0.02 1.55 1.33 100 1014.5
20210804022602 73 163 0.0 0.0 0.03 1.57 1.33 100 1014.6
20210804022044 73 163 0.0 0.0 0.04 1.57 1.33 100 1014.8
20210804021710 73 163 0.0 0.0 0.07 1.57 1.33 100 1014.9
20210804021103 73 163 0.0 0.0 0.07 1.57 1.33 100 1014.9
20210804020543 73 163 0.0 0.0 0.08 1.57 1.33 100 1014.7
20210804020125 73 163 0.0 0.0 0.09 1.57 1.33 100 1014.8
20210804015543 73 163 0.0 0.0 0.12 1.57 1.33 100 1014.9
20210804015105 73 163 0.0 0.0 0.22 1.57 1.33 100 1014.8
20210804014711 72 169 0.0 0.0 0.56 1.57 1.33 100 1014.7
20210804013558 72 170 0.0 0.0 0.83 1.56 1.32 100 1014.7
20210804013156 72 170 0.0 2.0 1.10 1.55 1.31 100 1014.5
20210804012605 72 172 0.0 2.0 1.29 1.69 1.31 100 1014.4
20210804012108 72 188 0.0 0.0 1.30 1.68 1.30 100 1014.4
20210804011659 72 190 0.0 0.0 1.27 1.65 1.27 100 1014.4
20210804011041 72 191 0.0 0.0 1.26 1.64 1.26 99 1014.5
20210804010547 72 191 0.0 1.0 1.25 1.63 1.25 99 1014.4
20210804010100 73 192 0.0 2.0 1.24 1.62 1.24 99 1014.3
20210804005539 73 198 0.0 4.0 1.23 1.61 1.23 99 1014.3
20210804005056 73 199 1.0 4.0 1.17 1.55 1.17 98 1014.2
20210804004653 73 185 0.0 3.0 0.80 1.18 0.80 98 1014.1
20210804003534 74 195 0.0 6.0 0.64 1.02 0.64 98 1014.1
20210804003049 74 128 1.0 4.0 0.37 0.75 0.37 96 1014.2
20210804002531 75 150 2.0 6.0 0.14 0.69 0.14 95 1014.2
20210804002030 76 142 1.0 6.0 0.01 0.56 0.01 93 1014.1
20210804001624 77 150 3.0 7.0 0.00 0.55 0.00 90 1013.8
20210804001027 78 197 4.0 8.0 0.00 0.55 0.00 90 1013.7
20210804000553 78 268 3.0 8.0 0.00 0.55 0.00 96 1013.4
20210804000044 78 136 0.0 1.0 0.00 0.55 0.00 96 1013.1
20210803235525 78 54 0.0 2.0 0.00 0.55 0.00 96 1012.9
20210803235029 79 49 0.0 4.0 0.00 0.55 0.00 95 1012.9
20210803234552 79 41 1.0 4.0 0.00 0.55 0.00 95 1012.9
20210803233532 79 41 2.0 3.0 0.00 0.55 0.00 94 1012.9
20210803233058 79 37 0.0 3.0 0.00 0.55 0.00 94 1012.8
20210803232523 80 23 1.0 3.0 0.00 0.78 0.00 93 1012.9
20210803232021 80 58 2.0 3.0 0.00 0.78 0.00 92 1013.0
20210803231618 80 259 0.0 2.0 0.00 0.78 0.00 93 1012.8
20210803231025 80 259 0.0 2.0 0.00 0.78 0.00 92 1012.7
20210803230519 80 306 0.0 4.0 0.00 0.78 0.00 91 1012.7
20210803230051 81 60 1.0 5.0 0.00 0.78 0.00 90 1012.7
20210803225518 81 23 2.0 6.0 0.00 0.78 0.00 90 1012.7
20210803225027 82 349 2.0 6.0 0.00 0.78 0.00 89 1012.7
20210803224628 82 46 2.0 5.0 0.00 0.78 0.00 89 1012.8
20210803223518 82 32 2.0 5.0 0.00 0.78 0.00 87 1012.6
20210803223022 83 42 1.0 3.0 0.00 0.78 0.00 87 1012.7
20210803222525 83 59 1.0 6.0 0.00 2.09 0.00 86 1012.6
20210803222016 83 333 1.0 6.0 0.00 2.09 0.00 86 1012.6
20210803221016 85 94 0.0 1.0 0.00 2.09 0.00 85 1012.6
20210803220517 85 113 0.0 1.0 0.00 2.09 0.00 85 1012.7
20210803220029 85 112 0.0 2.0 0.00 2.09 0.00 85 1012.5
20210803215515 85 110 0.0 3.0 0.00 2.09 0.00 84 1012.4
20210803215015 85 46 0.0 3.0 0.00 2.09 0.00 82 1012.5
20210803214515 86 139 0.0 0.0 0.00 2.09 0.00 76 1012.4
20210803213515 87 139 0.0 0.0 0.00 2.09 0.00 76 1012.4
20210803213018 87 139 0.0 0.0 0.00 2.09 0.00 77 1012.3
20210803212520 87 133 0.0 0.0 0.00 2.12 0.00 78 1012.2
20210803212015 87 133 0.0 0.0 0.00 2.12 0.00 77 1012.1
20210803211540 86 133 0.0 0.0 0.00 2.12 0.00 81 1012.2
20210803211015 86 133 0.0 0.0 0.00 2.12 0.00 80 1012.2
20210803210514 86 144 0.0 0.0 0.00 2.12 0.00 79 1012.3
20210803210023 86 144 0.0 0.0 0.00 2.12 0.00 79 1012.3
20210803205514 86 144 0.0 0.0 0.00 2.12 0.00 77 1012.4
20210803205014 86 144 0.0 1.0 0.00 2.12 0.00 77 1012.4
20210803204526 86 169 0.0 2.0 0.00 2.12 0.00 76 1012.5
20210803203512 86 149 0.0 1.0 0.00 2.12 0.00 78 1012.6
20210803203017 86 148 0.0 1.0 0.00 2.12 0.00 77 1012.6
20210803202510 86 148 0.0 1.0 0.00 2.21 0.00 78 1012.7
20210803202010 86 150 0.0 1.0 0.00 2.21 0.00 77 1012.9
20210803201533 86 149 0.0 1.0 0.00 2.21 0.00 78 1012.9
20210803201009 86 163 0.0 0.0 0.00 2.21 0.00 78 1012.9
20210803200513 86 164 0.0 0.0 0.00 2.21 0.00 79 1013.1
20210803200009 85 164 0.0 0.0 0.00 2.21 0.00 79 1013.1
20210803195508 85 164 0.0 1.0 0.00 2.21 0.00 78 1013.1
20210803195007 86 164 0.0 2.0 0.00 2.21 0.00 79 1013.1
20210803194523 87 112 0.0 2.0 0.00 2.21 0.00 76 1013.1
20210803193504 86 156 0.0 1.0 0.00 2.21 0.00 77 1013.2
20210803193005 86 165 0.0 2.0 0.00 2.21 0.00 78 1013.2
20210803192502 85 160 0.0 4.0 0.00 2.48 0.00 78 1013.3
20210803192009 85 207 0.0 5.0 0.00 2.48 0.00 78 1013.5
20210803191502 86 214 2.0 5.0 0.00 2.48 0.00 77 1013.4
20210803191001 86 119 0.0 2.0 0.00 2.48 0.00 76 1013.6
20210803190604 86 200 0.0 2.0 0.00 2.48 0.00 77 1013.5
20210803190221 85 158 0.0 4.0 0.00 2.48 0.00 79 1013.6
20210803185607 84 210 1.0 5.0 0.00 2.48 0.00 78 1013.5
20210803185059 85 217 2.0 5.0 0.00 2.48 0.00 79 1013.6
20210803184738 84 150 0.0 3.0 0.00 2.48 0.00 80 1013.7
20210803183630 84 148 0.0 3.0 0.00 2.48 0.00 81 1013.8
20210803183226 83 174 0.0 3.0 0.00 2.48 0.00 83 1013.9
20210803182553 83 157 1.0 4.0 0.00 2.48 0.00 82 1014.0
20210803182102 82 174 0.0 4.0 0.00 2.48 0.00 85 1014.0
20210803181712 82 162 1.0 4.0 0.00 2.48 0.00 85 1014.1
20210803181052 82 243 1.0 4.0 0.00 2.48 0.00 85 1014.0
20210803180552 82 137 1.0 4.0 0.00 2.48 0.00 84 1014.0
20210803180120 82 131 0.0 5.0 0.00 2.48 0.00 85 1014.0
20210803175550 83 165 0.0 4.0 0.00 2.48 0.00 85 1014.1
20210803175059 82 177 0.0 4.0 0.00 2.48 0.00 86 1014.1
20210803174623 81 107 1.0 4.0 0.00 2.48 0.00 86 1014.2
20210803173556 81 148 0.0 4.0 0.00 2.48 0.00 85 1014.3
20210803173145 81 131 1.0 4.0 0.00 2.48 0.00 85 1014.3
20210803172548 81 134 1.0 4.0 0.00 2.48 2.09 85 1014.2
20210803172110 81 162 1.0 2.0 0.00 2.48 2.09 88 1014.3
20210803171655 81 205 1.0 5.0 0.00 2.48 2.09 89 1014.3
20210803171042 81 139 2.0 5.0 0.00 2.48 2.09 88 1014.4
20210803170604 81 148 1.0 6.0 0.00 2.48 2.09 87 1014.3
20210803170255 82 174 2.0 6.0 0.00 2.48 2.09 86 1014.3
20210803165541 82 149 1.0 5.0 0.00 2.48 2.09 87 1014.3
20210803165043 81 106 1.0 7.0 0.00 2.48 2.09 87 1014.3
20210803164645 81 129 1.0 7.0 0.00 2.48 2.09 89 1014.5